| time (UTC) | temp C | wind direction | speed KPH | gust KPH | rain 1hr cm | rain 24hr cm | rain mn cm | humidity % | barometer mb |
| 20260507002406 | 17 | 5 | 0.0 | 6.4 | 0.00 | 0.00 | 0.00 | 78 | 1012.1 |
| 20260507001344 | 17 | 22 | 3.2 | 6.4 | 0.00 | 0.00 | 0.00 | 78 | 1012.2 |
| 20260507000343 | 17 | 345 | 1.6 | 8.0 | 0.00 | 0.00 | 0.00 | 78 | 1012.3 |
| 20260506235335 | 17 | 323 | 1.6 | 11.3 | 0.00 | 0.00 | 0.00 | 78 | 1012.5 |
| 20260506234342 | 17 | 5 | 1.6 | 6.4 | 0.00 | 0.00 | 0.00 | 78 | 1012.7 |
| 20260506233342 | 17 | 21 | 1.6 | 8.0 | 0.00 | 0.00 | 0.00 | 78 | 1012.6 |
| 20260506232333 | 17 | 254 | 0.0 | 4.8 | 0.00 | 0.00 | 0.00 | 78 | 1012.6 |
| 20260506231333 | 17 | 348 | 1.6 | 8.0 | 0.00 | 0.00 | 0.00 | 78 | 1012.7 |
| 20260506230352 | 17 | 360 | 0.0 | 4.8 | 0.00 | 0.00 | 0.00 | 78 | 1012.6 |
| 20260506225334 | 17 | 360 | 3.2 | 8.0 | 0.00 | 0.00 | 0.00 | 78 | 1012.9 |
| 20260506224334 | 17 | 355 | 3.2 | 6.4 | 0.00 | 0.00 | 0.00 | 79 | 1012.7 |
| 20260506223350 | 17 | 5 | 1.6 | 6.4 | 0.00 | 0.00 | 0.00 | 79 | 1012.6 |
| 20260506222336 | 17 | 26 | 3.2 | 8.0 | 0.00 | 0.00 | 0.00 | 79 | 1012.5 |
| 20260506221335 | 17 | 355 | 0.0 | 4.8 | 0.00 | 0.00 | 0.00 | 79 | 1012.6 |
| 20260506220337 | 17 | 59 | 1.6 | 6.4 | 0.00 | 0.00 | 0.00 | 79 | 1012.7 |
| 20260506215349 | 17 | 25 | 1.6 | 4.8 | 0.00 | 0.00 | 0.00 | 79 | 1012.8 |
| 20260506214347 | 17 | 21 | 3.2 | 8.0 | 0.00 | 0.00 | 0.00 | 80 | 1012.8 |
| 20260506213406 | 17 | 25 | 3.2 | 6.4 | 0.00 | 0.00 | 0.00 | 80 | 1013.1 |
| 20260506212404 | 17 | 30 | 0.0 | 1.6 | 0.00 | 0.00 | 0.00 | 80 | 1013.2 |
| 20260506211332 | 17 | 17 | 1.6 | 4.8 | 0.00 | 0.00 | 0.00 | 80 | 1013.1 |
| 20260506210331 | 17 | 26 | 0.0 | 6.4 | 0.00 | 0.00 | 0.00 | 80 | 1013.0 |
| 20260506205356 | 17 | 84 | 1.6 | 4.8 | 0.00 | 0.00 | 0.00 | 80 | 1012.9 |
| 20260506204354 | 17 | 85 | 3.2 | 6.4 | 0.00 | 0.00 | 0.00 | 80 | 1012.8 |
| 20260506203347 | 17 | 78 | 3.2 | 6.4 | 0.00 | 0.00 | 0.00 | 79 | 1012.8 |
| 20260506202331 | 17 | 86 | 3.2 | 11.3 | 0.00 | 0.00 | 0.00 | 79 | 1012.7 |
| 20260506201345 | 17 | 80 | 1.6 | 6.4 | 0.00 | 0.00 | 0.00 | 79 | 1012.6 |
| 20260506200344 | 17 | 87 | 3.2 | 8.0 | 0.00 | 0.00 | 0.00 | 79 | 1012.5 |
| 20260506195357 | 17 | 69 | 3.2 | 9.7 | 0.00 | 0.00 | 0.00 | 78 | 1012.4 |
| 20260506194345 | 17 | 71 | 6.4 | 11.3 | 0.00 | 0.00 | 0.00 | 78 | 1012.1 |
| 20260506193359 | 17 | 51 | 4.8 | 12.9 | 0.00 | 0.00 | 0.00 | 78 | 1012.1 |
| 20260506192334 | 17 | 67 | 6.4 | 9.7 | 0.00 | 0.00 | 0.00 | 78 | 1012.0 |
| 20260506191336 | 17 | 102 | 6.4 | 14.5 | 0.00 | 0.00 | 0.00 | 78 | 1012.0 |
| 20260506190332 | 17 | 59 | 8.0 | 16.1 | 0.00 | 0.00 | 0.00 | 77 | 1012.0 |
| 20260506185338 | 18 | 87 | 6.4 | 16.1 | 0.00 | 0.00 | 0.00 | 76 | 1011.8 |
| 20260506184358 | 18 | 83 | 6.4 | 14.5 | 0.00 | 0.00 | 0.00 | 76 | 1011.7 |
| 20260506183418 | 18 | 78 | 6.4 | 14.5 | 0.00 | 0.00 | 0.00 | 76 | 1011.7 |
| 20260506182404 | 18 | 94 | 12.9 | 19.3 | 0.00 | 0.00 | 0.00 | 75 | 1011.6 |
| 20260506181343 | 18 | 88 | 11.3 | 19.3 | 0.00 | 0.00 | 0.00 | 75 | 1011.6 |
| 20260506180340 | 18 | 76 | 12.9 | 24.1 | 0.00 | 0.00 | 0.00 | 74 | 1011.5 |
| 20260506175354 | 18 | 78 | 12.9 | 24.1 | 0.00 | 0.00 | 0.00 | 73 | 1011.6 |
| 20260506174346 | 18 | 96 | 11.3 | 30.6 | 0.00 | 0.00 | 0.00 | 74 | 1011.4 |
| 20260506173344 | 18 | 98 | 11.3 | 30.6 | 0.00 | 0.00 | 0.00 | 73 | 1011.6 |
| 20260506172334 | 18 | 132 | 9.7 | 30.6 | 0.00 | 0.00 | 0.00 | 73 | 1011.6 |
| 20260506171332 | 18 | 78 | 11.3 | 30.6 | 0.00 | 0.00 | 0.00 | 74 | 1011.5 |
| 20260506170341 | 19 | 63 | 8.0 | 30.6 | 0.00 | 0.00 | 0.00 | 73 | 1011.2 |
| 20260506165334 | 19 | 79 | 9.7 | 30.6 | 0.00 | 0.00 | 0.00 | 73 | 1011.4 |
| 20260506164348 | 19 | 96 | 9.7 | 30.6 | 0.00 | 0.00 | 0.00 | 72 | 1011.3 |
| 20260506163343 | 19 | 74 | 12.9 | 30.6 | 0.00 | 0.00 | 0.00 | 71 | 1011.3 |
| 20260506162334 | 19 | 87 | 14.5 | 30.6 | 0.00 | 0.00 | 0.00 | 70 | 1011.3 |
| 20260506161333 | 20 | 58 | 14.5 | 30.6 | 0.00 | 0.00 | 0.00 | 69 | 1011.3 |
| 20260506160352 | 20 | 43 | 16.1 | 30.6 | 0.00 | 0.00 | 0.00 | 68 | 1011.3 |
| 20260506155336 | 20 | 86 | 17.7 | 30.6 | 0.00 | 0.00 | 0.00 | 67 | 1011.0 |
| 20260506154336 | 20 | 136 | 11.3 | 30.6 | 0.00 | 0.00 | 0.00 | 66 | 1011.0 |
| 20260506153346 | 20 | 118 | 17.7 | 30.6 | 0.00 | 0.00 | 0.00 | 66 | 1011.1 |
| 20260506152334 | 20 | 94 | 14.5 | 30.6 | 0.00 | 0.00 | 0.00 | 65 | 1011.0 |
| 20260506151348 | 20 | 44 | 14.5 | 30.6 | 0.00 | 0.00 | 0.00 | 66 | 1011.2 |
| 20260506150403 | 20 | 45 | 14.5 | 30.6 | 0.00 | 0.00 | 0.00 | 66 | 1011.1 |
| 20260506145354 | 21 | 79 | 12.9 | 30.6 | 0.00 | 0.00 | 0.00 | 65 | 1011.3 |
| 20260506144345 | 21 | 51 | 14.5 | 30.6 | 0.00 | 0.00 | 0.00 | 65 | 1011.3 |
| 20260506143337 | 21 | 95 | 16.1 | 30.6 | 0.00 | 0.00 | 0.00 | 65 | 1011.6 |
| 20260506142356 | 21 | 98 | 14.5 | 30.6 | 0.00 | 0.00 | 0.00 | 65 | 1011.7 |
| 20260506141334 | 20 | 69 | 11.3 | 30.6 | 0.00 | 0.00 | 0.00 | 68 | 1011.5 |
| 20260506140334 | 21 | 57 | 11.3 | 30.6 | 0.00 | 0.00 | 0.00 | 66 | 1011.8 |
| 20260506135343 | 20 | 122 | 11.3 | 30.6 | 0.00 | 0.00 | 0.00 | 66 | 1011.7 |
| 20260506134334 | 20 | 78 | 12.9 | 30.6 | 0.00 | 0.00 | 0.00 | 66 | 1011.8 |
| 20260506133333 | 21 | 45 | 14.5 | 30.6 | 0.00 | 0.00 | 0.00 | 66 | 1011.8 |
| 20260506132345 | 20 | 92 | 12.9 | 30.6 | 0.00 | 0.00 | 0.00 | 67 | 1011.7 |
| 20260506131345 | 21 | 55 | 16.1 | 30.6 | 0.00 | 0.00 | 0.00 | 66 | 1011.9 |
| 20260506130334 | 21 | 65 | 16.1 | 30.6 | 0.00 | 0.00 | 0.00 | 65 | 1011.8 |
| 20260506125415 | 21 | 59 | 12.9 | 29.0 | 0.00 | 0.00 | 0.00 | 64 | 1011.9 |
| 20260506124346 | 21 | 79 | 12.9 | 29.0 | 0.00 | 0.00 | 0.00 | 64 | 1011.9 |
| 20260506123356 | 21 | 80 | 16.1 | 29.0 | 0.00 | 0.00 | 0.00 | 64 | 1011.8 |
| 20260506122354 | 21 | 137 | 16.1 | 29.0 | 0.00 | 0.00 | 0.00 | 63 | 1011.9 |
| 20260506121414 | 21 | 111 | 14.5 | 29.0 | 0.00 | 0.00 | 0.00 | 63 | 1012.1 |
| 20260506120342 | 21 | 38 | 11.3 | 29.0 | 0.00 | 0.00 | 0.00 | 65 | 1012.0 |
| 20260506115336 | 21 | 87 | 12.9 | 29.0 | 0.00 | 0.00 | 0.00 | 63 | 1012.2 |
| 20260506114355 | 21 | 78 | 12.9 | 29.0 | 0.00 | 0.00 | 0.00 | 62 | 1012.1 |
| 20260506113345 | 21 | 129 | 16.1 | 29.0 | 0.00 | 0.00 | 0.00 | 64 | 1012.1 |
| 20260506112345 | 21 | 96 | 12.9 | 29.0 | 0.00 | 0.00 | 0.00 | 63 | 1012.4 |
| 20260506111335 | 22 | 65 | 12.9 | 29.0 | 0.00 | 0.00 | 0.00 | 61 | 1012.4 |
| 20260506110331 | 21 | 138 | 11.3 | 29.0 | 0.00 | 0.00 | 0.00 | 64 | 1012.3 |
| 20260506105342 | 21 | 350 | 11.3 | 29.0 | 0.00 | 0.00 | 0.00 | 63 | 1012.5 |
| 20260506104333 | 21 | 84 | 16.1 | 29.0 | 0.00 | 0.00 | 0.00 | 59 | 1012.5 |
| 20260506103334 | 21 | 106 | 14.5 | 25.7 | 0.00 | 0.00 | 0.00 | 60 | 1012.6 |
| 20260506102355 | 21 | 30 | 14.5 | 25.7 | 0.00 | 0.00 | 0.00 | 61 | 1012.6 |
| 20260506101405 | 22 | 111 | 9.7 | 25.7 | 0.00 | 0.00 | 0.00 | 59 | 1012.5 |
| 20260506100343 | 21 | 63 | 9.7 | 24.1 | 0.00 | 0.00 | 0.00 | 59 | 1012.5 |
| 20260506095354 | 21 | 113 | 11.3 | 24.1 | 0.00 | 0.00 | 0.00 | 59 | 1012.4 |
| 20260506094348 | 22 | 344 | 14.5 | 24.1 | 0.00 | 0.00 | 0.00 | 57 | 1012.4 |
| 20260506093334 | 22 | 128 | 12.9 | 22.5 | 0.00 | 0.00 | 0.00 | 59 | 1012.4 |
| 20260506092333 | 21 | 84 | 4.8 | 17.7 | 0.00 | 0.00 | 0.00 | 60 | 1012.4 |
| 20260506091342 | 21 | 19 | 4.8 | 17.7 | 0.00 | 0.00 | 0.00 | 61 | 1012.0 |
| 20260506090341 | 21 | 10 | 1.6 | 17.7 | 0.00 | 0.00 | 0.00 | 59 | 1011.9 |
| 20260506085334 | 22 | 36 | 4.8 | 17.7 | 0.00 | 0.00 | 0.00 | 56 | 1011.9 |
| 20260506084412 | 22 | 108 | 1.6 | 17.7 | 0.00 | 0.00 | 0.00 | 59 | 1011.9 |
| 20260506083339 | 21 | 134 | 3.2 | 17.7 | 0.00 | 0.00 | 0.00 | 62 | 1011.9 |
| 20260506082339 | 21 | 253 | 1.6 | 12.9 | 0.00 | 0.00 | 0.00 | 64 | 1011.9 |
| 20260506081330 | 21 | 83 | 1.6 | 12.9 | 0.00 | 0.00 | 0.00 | 66 | 1012.0 |
| 20260506080406 | 21 | 78 | 1.6 | 12.9 | 0.00 | 0.00 | 0.00 | 64 | 1012.0 |
| 20260506073334 | 20 | 281 | 1.6 | 12.9 | 0.00 | 0.00 | 0.00 | 64 | 1012.0 |
| 20260506072353 | 20 | 338 | 1.6 | 12.9 | 0.00 | 0.00 | 0.00 | 65 | 1012.1 |
| 20260506071343 | 20 | 281 | 6.4 | 12.9 | 0.00 | 0.00 | 0.00 | 64 | 1012.0 |
| 20260506070404 | 20 | 273 | 0.0 | 12.9 | 0.00 | 0.00 | 0.00 | 65 | 1011.9 |
| 20260506062335 | 18 | 317 | 3.2 | 12.9 | 0.00 | 0.00 | 0.00 | 69 | 1012.0 |
| 20260506061334 | 17 | 355 | 4.8 | 11.3 | 0.00 | 0.00 | 0.00 | 69 | 1012.0 |
| 20260506060413 | 17 | 342 | 3.2 | 11.3 | 0.00 | 0.00 | 0.00 | 70 | 1012.1 |
| 20260506051335 | 16 | 348 | 3.2 | 9.7 | 0.00 | 0.00 | 0.00 | 71 | 1011.5 |
| 20260506050346 | 16 | 333 | 3.2 | 9.7 | 0.00 | 0.00 | 0.00 | 71 | 1011.3 |
| 20260506044334 | 16 | 309 | 4.8 | 8.0 | 0.00 | 0.00 | 0.00 | 70 | 1011.2 |
| 20260506043353 | 16 | 322 | 1.6 | 12.9 | 0.00 | 0.00 | 0.00 | 70 | 1011.3 |
| 20260506042341 | 16 | 279 | 3.2 | 9.7 | 0.00 | 0.00 | 0.00 | 70 | 1011.2 |
| 20260506041341 | 16 | 337 | 3.2 | 12.9 | 0.00 | 0.00 | 0.00 | 70 | 1011.2 |
| 20260506040328 | 16 | 298 | 1.6 | 8.0 | 0.00 | 0.00 | 0.00 | 70 | 1011.2 |
| 20260506035341 | 17 | 348 | 4.8 | 9.7 | 0.00 | 0.00 | 0.00 | 70 | 1011.1 |
| 20260506034341 | 17 | 355 | 4.8 | 16.1 | 0.00 | 0.00 | 0.00 | 70 | 1011.1 |
| 20260506033353 | 16 | 263 | 3.2 | 12.9 | 0.00 | 0.00 | 0.00 | 70 | 1011.1 |
| 20260506032332 | 16 | 321 | 1.6 | 8.0 | 0.00 | 0.00 | 0.00 | 70 | 1011.1 |
| 20260506031349 | 16 | 355 | 1.6 | 4.8 | 0.00 | 0.00 | 0.00 | 69 | 1011.1 |
| 20260506030339 | 16 | 103 | 0.0 | 0.0 | 0.00 | 0.00 | 0.00 | 67 | 1011.0 |
| 20260506025332 | 17 | 103 | 0.0 | 3.2 | 0.00 | 0.00 | 0.00 | 67 | 1011.0 |
| 20260506024349 | 17 | 94 | 3.2 | 8.0 | 0.00 | 0.00 | 0.00 | 67 | 1010.9 |
| 20260506023334 | 17 | 232 | 0.0 | 8.0 | 0.00 | 0.00 | 0.00 | 67 | 1010.8 |
| 20260506022333 | 17 | 266 | 0.0 | 1.6 | 0.00 | 0.00 | 0.00 | 65 | 1010.8 |
| 20260506021352 | 17 | 242 | 3.2 | 4.8 | 0.00 | 0.00 | 0.00 | 63 | 1010.9 |
| 20260506020343 | 17 | 242 | 0.0 | 1.6 | 0.00 | 0.00 | 0.00 | 61 | 1010.9 |
| 20260506015335 | 17 | 259 | 0.0 | 1.6 | 0.00 | 0.00 | 0.00 | 61 | 1010.9 |
| 20260506014355 | 17 | 267 | 0.0 | 1.6 | 0.00 | 0.00 | 0.00 | 61 | 1010.9 |
| 20260506013352 | 17 | 269 | 0.0 | 4.8 | 0.00 | 0.00 | 0.00 | 61 | 1011.0 |
| 20260506012400 | 17 | 267 | 1.6 | 4.8 | 0.00 | 0.00 | 0.00 | 63 | 1011.1 |
| 20260506011354 | 17 | 188 | 0.0 | 4.8 | 0.00 | 0.00 | 0.00 | 63 | 1011.0 |
| 20260506010333 | 17 | 228 | 0.0 | 4.8 | 0.00 | 0.00 | 0.00 | 63 | 1011.0 |
| 20260506005406 | 17 | 223 | 0.0 | 6.4 | 0.00 | 0.00 | 0.00 | 65 | 1011.0 |
| 20260506004404 | 18 | 259 | 0.0 | 4.8 | 0.00 | 0.00 | 0.00 | 65 | 1010.9 |
| 20260506003335 | 18 | 312 | 1.6 | 6.4 | 0.00 | 0.00 | 0.00 | 66 | 1011.1 |